TIME,DELAY(SENSOR),PRES,T(CTD),SAL,OXYGEN,RAWTEMP,T(OPTODE),TCPHASE,FLUOR,BETA(BETA700),BETA(BETA412),BETA(BETA440),CDOM,C(CSC),ED(ED411.90),ED(ED443.80),ED(ED489.40),ED(ED554.70),LU(LU412.20),LU(LU443.80),LU(LU489.40),LU(LU555.00),COMP,TILTX,TILTX(TILTY),CHECK
1369236579,5807,496.8099975585937500,17.9370002746582030,36.5373001098632800,229.4703063964843800,157.3428955078125000,17.9350605010986330,31.0324401855468750,50,99,95,81,66,10421,2146958052,2147513444,2147264667,2147454628,2147082185,2146955355,2147657024,2147125778,60,-1,8,5086
1369236697,5803,485.6099853515625000,18.0065994262695300,36.5466003417968750,229.1860046386718800,155.1381988525390600,18.0016403198242200,31.0167903900146500,51,104,96,80,67,10423,2146958390,2147513590,2147267858,2147453330,2147084452,2146961673,2147654454,2147132022,125,-1,8,18084
1369236812,5809,474.6099853515625000,18.0515995025634770,36.5526008605957000,228.9987030029297000,153.6719055175781200,18.0459308624267580,31.0064201354980470,51,105,94,80,67,10426,2146959268,2147515145,2147264859,2147453824,2147083465,2146953974,2147651547,2147126500,3567,-1,8,35014
1369236927,5806,463.3900146484375000,18.1026000976562500,36.5570983886718750,227.7698974609375000,151.9183044433593800,18.0988903045654300,31.0440406799316400,50,102,97,81,67,10425,2146956699,2147513106,2147269138,2147451849,2147080137,2146956626,2147651565,2147130880,206,-1,8,52658
1369237045,5805,451.6199951171875000,18.1152992248535160,36.5565986633300800,226.5632019042968800,151.2167968750000000,18.1200809478759770,31.0952491760253900,50,102,96,81,67,10424,2146960365,2147512749,2147266752,2147451931,2147081353,2146960045,2147651190,2147129042,3496,-1,8,38834
1369237148,5802,440.8500061035156000,18.1618995666503900,36.5648002624511700,227.2500000000000000,149.9900054931640600,18.1571407318115230,31.0440998077392580,50,103,96,80,66,10418,2146957723,2147512676,2147267684,2147452525,2147081307,2146950985,2147647021,2147128201,2785,-1,8,2202
1369237251,5806,430.0400085449219000,18.2038993835449220,36.5684013366699200,226.1029968261718800,148.6152038574218800,18.1986808776855470,31.0831794738769530,50,103,96,81,67,10420,2146957266,2147516845,2147262290,2147448329,2147077046,2146959286,2147651145,2147127286,2749,-1,8,6294
1369237371,5805,418.6400146484375000,18.2334995269775400,36.5714988708496100,225.7919006347656200,147.6743927001953000,18.2271003723144530,31.0863208770751950,50,102,96,80,67,10417,2146958829,2147514697,2147264073,2147449389,2147075812,2146958683,2147653412,2147124598,2925,-2,9,4422
1369237510,5805,407.8999938964844000,18.2660999298095700,36.5746994018554700,225.3506927490234400,146.4904937744140600,18.2628707885742200,31.0928802490234380,51,102,95,80,67,10420,2146956809,2147516745,2147266569,2147453568,2147077385,2146953682,2147649709,2147126738,2583,-1,8,14527
1369237663,5802,397.0100097656250000,18.3686008453369140,36.5858001708984400,224.3343963623047000,143.2382965087890600,18.3611602783203120,31.1003303527832030,50,103,96,81,67,10417,2146962852,2147510710,2147265316,2147452059,2147073773,2146957504,2147651227,2147126674,2234,-1,8,884
1369237838,5807,386.1000061035156000,18.4927005767822270,36.5973014831543000,222.3999938964843800,139.1289062500000000,18.4853801727294920,31.1437797546386720,50,103,97,82,68,10414,2146956928,2147516937,2147265380,2147450752,2147077302,2146956598,2147651428,2147128420,1824,-1,8,56457
1369238008,5810,374.1900024414062500,18.5895004272460940,36.6030998229980500,220.1347045898437500,135.7673034667968800,18.5870304107666000,31.2152805328369140,50,102,95,83,69,10407,2146957504,2147514688,2147265206,2147449755,2147072064,2146955931,2147646930,2147127305,1871,-1,8,37571
1369238147,5802,363.4599914550781000,18.6956005096435550,36.6086997985839840,217.2158966064453000,132.2528991699218800,18.6933193206787100,31.3207206726074220,50,103,96,82,68,10416,2146957238,2147515044,2147263835,2147451008,2147078162,2146955099,2147651026,2147128027,1104,-1,8,865
1369238295,5806,350.6000061035156000,18.8169002532959000,36.6119995117187500,219.3013000488281200,128.3896026611328000,18.8101997375488280,31.1596794128417970,50,104,96,82,67,10414,2146958902,2147515227,2147261211,2147447524,2147076928,2146957476,2147648969,2147127734,628,-1,8,9966
1369238398,5804,340.0700073242187500,18.8892002105712900,36.5891990661621100,229.3426055908203000,125.8551025390625000,18.8868999481201170,30.6177997589111330,50,103,97,81,65,10410,2146955529,2147515894,2147263158,2147449298,2147076480,2146957138,2147647981,2147125494,3337,-2,8,20742
1369238501,5803,329.0700073242187500,18.9636001586914060,36.5956993103027340,232.7870025634765600,123.1695022583007800,18.9681892395019530,30.4142894744873050,50,108,98,82,66,10402,2146957860,2147513737,2147263149,2147447396,2147076041,2146958171,2147648128,2147126482,2121,-1,8,54824
1369238621,5802,317.1099853515625000,19.0697002410888670,36.5919990539550800,233.5904998779297000,119.9092025756836000,19.0669097900390620,30.3324508666992200,51,105,95,82,66,10413,2146960054,2147515702,2147262774,2147449170,2147076608,2146957632,2147650496,2147126144,1421,-2,8,25395
1369238748,5804,305.9599914550781000,19.1474990844726560,36.5885009765625000,239.0753021240234400,117.2865982055664000,19.1463394165039060,30.0382595062255860,50,105,96,83,64,10406,2146958162,2147513874,2147261403,2147448630,2147081435,2146960932,2147650121,2147130916,1457,-1,8,58915
1369238865,5803,295.4100036621094000,19.2404003143310550,36.5940017700195300,241.8860931396484400,114.0674972534179700,19.2438507080078120,29.8656806945800780,51,107,97,83,64,10405,2146957101,2147512704,2147262518,2147446336,2147079149,2146963776,2147653650,2147131428,1953,-1,8,64639
1369238992,5805,283.9500122070312500,19.3166999816894530,36.5970001220703100,244.0538024902343800,111.7175979614257800,19.3150596618652340,29.7360000610351560,50,109,97,84,64,10394,2146955611,2147510509,2147262555,2147446272,2147074093,2146963620,2147653632,2147125851,2146,-2,8,36370
1369239119,5804,272.9299926757812500,19.3689994812011720,36.5927009582519500,246.5874023437500000,110.0541992187500000,19.3654708862304700,29.5993995666503900,51,109,97,83,63,10399,2146953718,2147511780,2147261293,2147445622,2147080905,2146961435,2147650477,2147126445,1426,-2,8,43118
1369239249,5803,262.2200012207031000,19.4514007568359380,36.5940017700195300,247.5977020263672000,107.4445037841796900,19.4445800781250000,29.5205192565917970,50,108,97,82,64,10393,2146954916,2147514386,2147263122,2147446820,2147079424,2146964370,2147658624,2147130221,1711,-1,8,56373
1369239388,5804,251.8600006103515600,19.4967994689941400,36.5932006835937500,249.4949035644531200,105.8971023559570300,19.4915008544921880,29.4160499572753900,50,107,96,83,63,10401,2146952420,2147513636,2147261723,2147447890,2147082450,2146972745,2147662116,2147127762,2118,-1,8,10270
1369239545,5805,239.7899932861328000,19.5725994110107420,36.5982017517089840,249.0901031494140600,103.3551025390625000,19.5685901641845700,29.4013309478759770,52,107,99,83,63,10397,2146956141,2147515300,2147261275,2147442368,2147082002,2146968493,2147663469,2147127058,1486,-1,8,54399
1369239660,5806,229.3699951171875000,19.6079006195068360,36.6026000976562500,248.6849060058593800,102.1880035400390600,19.6039905548095700,29.4042091369628900,53,110,97,82,63,10402,2146958491,2147516635,2147265142,2147442560,2147086893,2146986148,2147704512,2147132763,1146,-1,8,58347
1369239775,5807,218.6799926757812500,19.7192993164062500,36.6151008605957000,246.7162933349609400,98.6146774291992200,19.7124099731445300,29.4460391998291000,57,108,97,82,63,10396,2146954194,2147515428,2147262738,2147444525,2147085686,2146987392,2147697325,2147130322,982,-1,8,33458
1369239905,5804,206.8099975585937500,19.7912998199462900,36.6194992065429700,247.4178009033203000,95.9953765869140600,19.7919101715087900,29.3810691833496100,60,108,96,82,64,10396,2146957641,2147515702,2147264603,2147444818,2147086518,2146985078,2147699830,2147131958,1450,-1,8,61010
1369240008,5752,197.1100006103515600,19.8736000061035160,36.6258010864257800,247.1551055908203000,93.5203628540039000,19.8670501708984380,29.3608207702636720,63,115,97,82,63,10381,2146954697,2147513737,2147267501,2147443419,2147088502,2147036827,2147802112,2147136960,2035,-2,8,63956
1369240063,5808,192.1199951171875000,19.9090995788574220,36.6268005371093750,247.3549041748047000,92.2476501464843800,19.9056892395019530,29.3356494903564450,65,111,98,82,64,10387,2146955794,2147518134,2147265938,2147442706,2147092690,2147046162,2147812598,2147137545,1692,-1,9,2519
1369240118,5802,187.2500000000000000,19.9304008483886720,36.6195983886718750,248.6378936767578000,91.3245468139648400,19.9337291717529300,29.2667503356933600,70,111,97,82,63,10389,2146955456,2147513627,2147265810,2147443474,2147092278,2147014171,2147747483,2147135396,1133,-1,8,22315
1369240194,5807,181.0299987792968800,20.0394992828369140,36.6237983703613300,249.6094970703125000,88.5464172363281200,20.0181198120117200,29.1882591247558600,77,110,97,83,63,10385,2146955995,2147515108,2147268507,2147440475,2147088557,2147007369,2147733403,2147135771,765,-1,9,17023
1369240249,5805,177.0299987792968800,20.0433006286621100,36.6072006225585940,249.7182006835937500,87.8881912231445300,20.0381202697753900,29.1749992370605470,82,111,96,81,64,10375,2146956845,2147515940,2147271003,2147444224,2147096859,2147061156,2147828928,2147135140,874,-1,8,3373
1369240304,5805,172.7500000000000000,20.1044006347656250,36.6082992553710940,250.4987945556640600,85.8061676025390600,20.1013793945312500,29.1140098571777340,80,112,97,83,64,10379,2146956900,2147513225,2147267117,2147441252,2147100461,2147061988,2147828736,2147138102,728,-2,8,64543
1369240359,5807,168.2899932861328000,20.1329002380371100,36.6134986877441400,251.4423980712890600,84.7423477172851600,20.1337108612060550,29.0592002868652340,82,112,96,83,64,10379,2146957696,2147519286,2147272914,2147443008,2147117056,2147142134,2147996571,2147147803,731,-1,8,63020
1369240414,5805,163.7100067138672000,20.2096996307373050,36.6156997680664060,252.1591949462890600,82.0588302612304700,20.2152900695800780,28.9937705993652340,78,115,97,84,65,10381,2146957138,2147518912,2147277257,2147437997,2147126354,2147174765,2148050733,2147150162,375,-1,8,44191
1369240469,5807,158.9400024414062500,20.3512992858886720,36.6458015441894500,249.6551055908203000,77.7250366210937500,20.3470897674560550,29.0481891632080080,79,110,98,82,62,10383,2146956544,2147514505,2147267913,2147440576,2147110427,2147093312,2147887122,2147140982,826,-1,8,14236
1369240548,5807,152.5800018310547000,20.3782997131347660,36.6470985412597660,248.7825927734375000,76.9190826416015600,20.3716106414794920,29.0760898590087900,80,110,98,82,63,10368,2146957376,2147528420,2147285888,2147435885,2147170944,2147340854,2148339492,2147167561,1001,-1,8,45792
1369240603,5805,148.6499938964843800,20.4095001220703120,36.6493988037109400,248.6082000732422000,75.5065231323242200,20.4145908355712900,29.0658397674560550,83,111,98,81,62,10384,2146956123,2147526820,2147289389,2147438043,2147197494,2147417234,2148446573,2147173366,882,-2,8,21004
1369240658,5804,144.9499969482422000,20.4804000854492200,36.6455001831054700,248.8061065673828000,73.6097793579101600,20.4723091125488280,29.0330696105957030,86,111,97,82,64,10376,2146958829,2147528621,2147296676,2147438491,2147221238,2147497252,2148569097,2147184082,452,-1,8,9626
1369240713,5807,141.4100036621093800,20.4993000030517580,36.6450004577636700,249.5496978759765600,72.9013824462890600,20.4938697814941400,28.9911994934082030,89,112,97,83,64,10376,2146959579,2147529856,2147299154,2147442002,2147246966,2147557403,2148670994,2147192000,268,-2,8,21584
1369240780,5804,137.4600067138672000,20.5130004882812500,36.6427001953125000,249.8925933837890600,72.3552627563476600,20.5104999542236330,28.9692592620849600,93,115,96,82,63,10378,2146959954,2147530605,2147301440,2147440118,2147270902,2147627648,2148783533,2147195337,3478,-1,9,44169
1369240859,5807,133.7299957275390600,20.5440998077392580,36.6376991271972660,249.9382019042968800,71.5836334228515600,20.5339908599853500,28.9574508666992200,101,114,97,82,63,10370,2146960210,2147535771,2147306660,2147438765,2147297536,2147682093,2148870336,2147204726,36,-1,9,6320
1369240986,5806,130.1900024414062500,20.5569000244140620,36.6127014160156250,256.4238891601562500,71.3233032226562500,20.5419101715087900,28.6746006011962900,82,116,99,83,63,10357,2146964224,2147533138,2147312329,2147439917,2147337892,2147781851,2149046372,2147219849,298,-1,9,46090
1369241169,5807,125.9199981689453100,21.0652999877929700,36.6811981201171900,251.9644927978515600,55.6002616882324200,21.0211105346679700,28.6672706604003900,82,114,100,85,64,10364,2146965961,2147537069,2147318866,2147437376,2147380480,2147868635,2149180077,2147228470,962,-1,8,10279
1369241320,5806,122.3199996948242200,21.0879993438720700,36.6305999755859400,242.7023010253906200,53.2926292419433600,21.0915298461914060,29.0469207763671880,78,114,99,83,64,10374,2146967478,2147541101,2147325933,2147438747,2147440073,2148011309,2149426605,2147243565,1679,-2,9,33258
1369241507,5804,118.0699996948242200,21.1005001068115230,36.5773010253906250,254.9219055175781200,52.7078590393066400,21.1093807220459000,28.5040702819824220,72,113,98,83,62,10363,2146966573,2147547611,2147338724,2147436096,2147529334,2148192950,2149690816,2147264557,1220,-2,9,15894
1369241622,5806,113.3799972534179700,21.1601009368896500,36.5722999572753900,256.5589904785156000,51.1326217651367200,21.1574707031250000,28.4149799346923830,74,123,99,84,63,10362,2146960932,2147526153,2147287488,2147434285,2147275209,2147431323,2148350866,2147177554,1306,-1,9,43743
1369241701,5809,109.1699981689453100,21.1825008392334000,36.5688018798828100,257.7517089843750000,50.4648399353027340,21.1778602600097660,28.3564491271972660,76,116,99,84,61,10359,2146977462,2147563254,2147366692,2147436013,2147827163,2148772699,2150513627,2147332397,1781,-1,9,39605
1369241771,5804,105.4199981689453100,21.2896003723144530,36.5794982910156250,258.1076965332031000,47.2207489013671900,21.2769298553466800,28.3008899688720700,81,119,99,84,62,10356,2146971273,2147547766,2147334930,2147436909,2147668580,2148323300,2149712438,2147282240,2358,-1,9,18996
1369241850,5805,101.5899963378906200,21.3092994689941400,36.5663986206054700,258.2435913085937500,46.3434791564941400,21.3037300109863280,28.2842407226562500,85,120,98,84,62,10343,2146975323,2147555172,2147350610,2147437385,2147765558,2148466441,2149868342,2147294573,2899,-2,9,47037
1369241917,5808,98.8099975585937500,21.4855003356933600,36.5993003845214840,257.6185913085937500,41.2282295227050800,21.4600791931152340,28.2467002868652340,92,122,99,84,61,10332,2146989312,2147593243,2147417490,2147440539,2148350272,2149761408,2151905801,2147459565,2699,-2,9,36634
1369241972,5802,96.8399963378906200,21.6758003234863280,36.6535987854003900,250.4221038818359400,34.2610816955566400,21.6732196807861330,28.4659690856933600,105,123,99,85,63,10340,2146990976,2147595446,2147428461,2147441737,2148415241,2149900827,2152137929,2147481444,2555,-2,9,12343
1369242027,5803,95.0000000000000000,21.7877006530761720,36.6735992431640600,242.1186065673828000,30.8405494689941400,21.7779502868652340,28.7892208099365230,112,120,98,84,63,10316,2146983277,2147572077,2147385334,2147438939,2148168969,2149286208,2151166930,2147409490,2037,-2,9,63500
1369242085,5803,93.2200012207031200,21.8934993743896500,36.6992988586425800,234.8889007568359400,27.0823898315429700,21.8930797576904300,29.0727005004882800,121,126,98,84,63,10332,2146966217,2147540626,2147322349,2147432786,2147617517,2148056393,2149220617,2147253421,1387,-1,9,37129
1369242152,5803,91.1999969482421900,22.0757007598876950,36.7379989624023440,225.4261932373047000,21.5222091674804700,22.0635509490966800,29.4533805847167970,125,129,101,84,65,10322,2146992539,2147585883,2147425426,2147437952,2148518198,2149985170,2152276763,2147524315,1156,-2,9,3292
1369242219,5802,89.2600021362304700,22.1924991607666000,36.7545013427734400,212.8462066650390600,18.0087394714355470,22.1713600158691400,30.0439701080322270,129,144,99,84,65,10322,2146991808,2147592018,2147424877,2147441956,2148431067,2149741714,2151907209,2147501906,1229,-2,9,49811
1369242298,5802,87.3600006103515600,22.2154998779296880,36.7394981384277340,209.8594970703125000,16.7273597717285160,22.2106895446777340,30.1847991943359380,135,128,99,84,66,10318,2147005476,2147617499,2147499346,2147443492,2148954459,2150827602,2153733193,2147680018,1026,-2,9,45484
1369242413,5805,84.3600006103515600,22.5016002655029300,36.7541007995605500,202.1921997070312500,9.6071901321411130,22.4294109344482420,30.5084991455078120,142,138,100,86,67,10312,2147009124,2147618770,2147510226,2147446125,2149036361,2150835437,2153799936,2147721316,757,-2,9,49759
1369242468,5800,82.4700012207031200,22.4297008514404300,36.7070999145507800,204.1354064941406200,10.7848997116088870,22.3932094573974600,30.4167709350585940,147,135,100,84,65,10303,2147017216,2147631113,2147540900,2147450249,2149331648,2151302820,2154602706,2147820059,414,-2,8,47082
1369242523,5804,80.8700027465820300,22.2826995849609380,36.6249008178710940,212.7722015380859400,13.3930797576904300,22.3130798339843750,29.9883499145507800,149,132,101,86,64,10299,2147022555,2147642148,2147559085,2147450139,2149525988,2151552219,2154982884,2147893229,222,-1,9,30517
1369242590,5805,79.2600021362304700,22.5797004699707030,36.6725997924804700,219.1533050537109400,4.7416357994079590,22.5790290832519530,29.5498008728027340,140,133,100,88,63,10292,2146986633,2147572507,2147385773,2147434404,2148317531,2149108699,2150888539,2147449846,3408,-1,9,10434
1369242681,5804,77.4000015258789000,22.7490997314453120,36.7117996215820300,212.1517028808593800,-0.5795627832412720,22.7428092956542970,29.8403205871582030,170,142,100,87,68,10284,2147019584,2147629366,2147528118,2147449837,2149407442,2150971666,2153933732,2147819949,3531,-2,9,38849
1369242760,5808,74.8300018310546900,22.7075996398925780,36.6400985717773440,214.6893005371093800,-1.3599510192871094,22.7668399810791000,29.6990394592285160,160,139,100,86,64,10269,2147039286,2147655350,2147581293,2147457609,2150109897,2151974811,2155422162,2148089344,25,-1,9,36443
1369242815,5807,72.2300033569336000,22.7798004150390620,36.5708007812500000,218.2207946777343800,-1.3583780527114868,22.7667903900146500,29.5188903808593750,176,141,103,89,64,10246,2147005467,2147587931,2147423524,2147439680,2148730084,2149485184,2151393846,2147577590,449,-2,9,56834
1369242870,5807,70.1500015258789000,22.9589996337890620,36.5466003417968750,227.1139984130859400,-6.5814261436462400,22.9277400970459000,29.0146198272705080,243,153,105,86,63,10241,2147013504,2147605824,2147446061,2147447862,2149123830,2150001947,2152092425,2147681636,713,-1,8,52311
1369242925,5806,68.8300018310546900,23.3043003082275400,36.6279983520507800,225.4485015869140600,-16.7347393035888670,23.2410697937011720,28.9665794372558600,292,175,102,90,64,10183,2147103945,2147742509,2147765961,2147488100,2152232082,2154852278,2159790966,2148784054,3481,-2,9,61973
1369243016,5805,67.7699966430664000,23.5224990844726560,36.6739997863769500,219.8740997314453000,-24.6305809020996100,23.4851703643798830,29.1399803161621100,299,181,105,88,65,10172,2147004150,2147593234,2147432566,2147441481,2149016310,2149720228,2151682934,2147662528,3119,-2,9,25676
1369243155,5805,64.7699966430664000,23.4617004394531250,36.5917015075683600,221.8594970703125000,-24.0273208618164060,23.4665107727050780,29.0495605468750000,404,173,109,92,64,9997,2147136420,2147768630,2147821293,2147495232,2153266093,2155674313,2161152155,2149323666,2348,-2,9,50707
1369243210,5806,62.5900001525878900,23.1734008789062500,36.4471015930175800,232.5787048339843800,-15.9229803085327150,23.2159996032714840,28.6384506225585940,283,168,107,91,64,10053,2147185033,2147833947,2147945161,2147513545,2154624128,2157251328,2163240868,2149812973,1892,-2,9,36891
1369243265,5806,60.1699981689453100,23.1277008056640620,36.3787002563476560,245.3529968261718800,-13.9332103729248050,23.1545505523681640,28.0865898132324220,221,154,109,88,61,10133,2147262171,2147936448,2148117184,2147538660,2156577362,2159625005,2166156251,2150377417,1710,-2,9,60111
1369243320,5803,57.9900016784668000,23.2290992736816400,36.3535003662109400,267.2857055664062500,-16.1770095825195300,23.2238407135009770,27.1471691131591800,191,165,107,89,60,10159,2147332114,2148020708,2148292205,2147570002,2158649536,2162069915,2169021266,2150972873,1382,-2,9,45755
1369243399,5806,55.4099998474121100,23.2532005310058600,36.3577995300293000,273.6062011718750000,-17.1728801727294920,23.2546005249023440,26.8887901306152340,175,154,107,91,61,9978,2147435300,2148155437,2148531638,2147634843,2161646628,2165606116,2172910107,2151776301,757,-2,9,59633
1369243541,5807,51.4799995422363300,23.3962993621826170,36.3488006591796900,269.0849914550781000,-21.4843406677246100,23.3878593444824220,27.0121498107910160,157,148,104,89,62,10113,2147259968,2147891172,2147915483,2147515456,2156785014,2158465755,2161428086,2149498614,721,-1,9,49892
1369243576,5803,50.7099990844726560,23.4708995819091800,36.3412017822265600,264.1834106445312500,-24.1585102081298830,23.4705696105957030,27.1737194061279300,159,150,106,90,61,10133,2147281472,2147924333,2147995099,2147529225,2156726500,2158448557,2161341641,2149484077,771,-1,9,63867
1369243711,5808,48.4099998474121100,23.7597007751464840,36.3186988830566400,281.2587890625000000,-33.8398590087890600,23.7703800201416000,26.3996295928955080,146,150,104,91,61,10136,2147897837,2148743268,2149428251,2147792438,2176941577,2183696000,2191679826,2155337225,834,-1,9,40384
1369243756,5805,46.6399993896484400,23.9151992797851560,36.3100013732910160,284.9016113281250000,-38.0100898742675800,23.8997097015380860,26.2157897949218750,118,155,102,91,65,10118,2148052013,2148924653,2149684928,2147845595,2181963437,2189666907,2197792621,2156622793,645,-2,9,6620
1369243802,5804,44.5499992370605500,23.9510993957519530,36.3120994567871100,289.9721984863281000,-39.9329910278320300,23.9593906402587900,26.0097007751464840,129,147,105,89,61,10127,2147672914,2148415451,2148733467,2147640694,2168567670,2171888274,2175016530,2151975378,442,-2,9,52624
1369243848,5809,42.5099983215332000,24.0049991607666000,36.3027000427246100,280.7539062500000000,-41.1006698608398440,23.9956398010253900,26.3316307067871100,117,145,106,91,63,10134,2147538980,2148219126,2148330688,2147566244,2165147328,2167559780,2169530331,2151041545,3437,-1,9,55711
1369243894,5802,40.7500000000000000,24.0328006744384770,36.3007011413574200,292.2450866699219000,-42.2928390502929700,24.0326595306396500,25.9009208679199220,117,157,105,91,58,10109,2148560694,2149543853,2150378048,2147909906,2199120137,2209580672,2217252498,2161344091,3378,-2,9,35851
1369243966,5804,38.8800010681152340,24.0664997100830080,36.3037986755371100,304.5297851562500000,-43.7640190124511700,24.0783500671386720,25.4588298797607420,108,149,109,90,61,10149,2148670244,2149649005,2150441051,2147892507,2203243008,2213769435,2220324123,2161928521,3106,-2,9,9389
1369244049,5804,36.8600006103515600,24.3381004333496100,36.2682991027832000,299.5389099121094000,-51.5015182495117200,24.3189296722412100,25.5379505157470700,101,142,104,89,58,10130,2148988580,2150016740,2150845577,2147955949,2216503616,2229461449,2234977627,2165353737,2933,-2,9,36
1369244147,5803,34.8899993896484400,24.6058998107910160,36.2344017028808600,321.4176025390625000,-60.4887313842773440,24.5988903045654300,24.7121696472167970,90,145,108,90,61,10154,2149465197,2150591990,2151509769,2148049974,2232057837,2247158966,2250836736,2169039085,2443,-1,9,48190
1369244360,5807,32.7000007629394500,24.9284000396728500,36.2201995849609400,341.5347900390625000,-70.7790527343750000,24.9201698303222660,23.9793701171875000,85,138,102,88,61,10212,2149973924,2151196361,2152486317,2148558921,2246485010,2261772333,2261680091,2171707538,854,-3,8,6985